"2010-07-26 00:00:00",14701,5.075,156.9,4.722,0.326,22.4,110.3397,25.77,26.67,31.29,0,111.3,13.09,26.61,118.9
"2010-07-26 00:00:30",14702,4.74,146.8,3.64,0.226,22.48,110.3428,25.78,26.67,31.43,0,111.3,13.09,26.62,108.8
"2010-07-26 00:01:00",14703,4.294,145.6,2.978,0.181,22.58,110.3461,25.78,26.67,31.43,0,111.3,13.09,26.63,107.6
"2010-07-26 00:01:30",14704,5.143,150.1,2.634,0.245,22.67,110.3436,25.78,26.66,31.5,0,111.3,13.09,26.62,112.1
"2010-07-26 00:02:00",14705,4.87,144.9,5.575,0.25,22.69,110.3402,25.77,26.66,31.61,0,111.3,13.09,26.61,106.9
"2010-07-26 00:02:30",14706,5.145,156.4,8.79,0.247,22.89,110.3341,25.75,26.66,31.17,0,111.3,13.09,26.59,118.4
"2010-07-26 00:03:00",14707,5.423,155.4,5.459,0.342,22.93,110.3355,25.76,26.65,31.62,0,111.3,13.09,26.60,117.4
"2010-07-26 00:03:30",14708,4.911,147,4.453,0.309,22.93,110.338,25.76,26.66,31.73,0,111.3,13.09,26.60,109.0
"2010-07-26 00:04:00",14709,3.369,140.4,3.631,0.497,22.87,110.3413,25.77,26.66,31.79,0,111.3,13.09,26.61,102.4
"2010-07-26 00:04:30",14710,3.94,144.1,8.89,0.651,22.75,110.3416,25.77,26.68,31.69,0,111.3,13.09,26.61,106.1
"2010-07-26 00:05:00",14711,4.186,151.3,8.14,0.348,22.62,110.3416,25.77,26.67,30.89,0,111.3,13.09,26.61,113.3
"2010-07-26 00:05:30",14712,4.357,158.6,2.54,0.247,22.62,110.3517,25.8,26.68,31,0,111.3,13.09,26.64,120.6
"2010-07-26 00:06:00",14713,4.702,153,7.078,0.302,22.72,110.3582,25.81,26.68,31.01,0,111.3,13.09,26.66,115.0
"2010-07-26 00:06:30",14714,4.63,146.8,3.008,0.262,22.75,110.3486,25.79,26.69,31.11,0,111.3,13.09,26.63,108.8
"2010-07-26 00:07:00",14715,4.976,150.6,3.368,0.133,22.85,110.3419,25.77,26.67,31.16,0,111.3,13.09,26.61,112.6
"2010-07-26 00:07:30",14716,5.339,152.8,2.881,0.276,22.94,110.3346,25.75,26.67,31.25,0,111.3,13.09,26.60,114.8
"2010-07-26 00:08:00",14717,5.508,154.2,4.086,0.267,23.03,110.3332,25.75,26.67,31.09,0,111.3,13.09,26.59,116.2
"2010-07-26 00:08:30",14718,4.989,160.4,4.585,0.43,23.12,110.3335,25.75,26.65,31,0,111.3,13.08,26.59,122.4
"2010-07-26 00:09:00",14719,5.026,149.6,4.528,0.78,23.11,110.3351,25.76,26.66,30.92,0,111.3,13.09,26.60,111.6
"2010-07-26 00:09:30",14720,4.258,148.8,8.16,0.48,23.13,110.3351,25.76,26.66,30.8,0,111.3,13.08,26.60,110.8
"2010-07-26 00:10:00",14721,4.95,155.1,5.317,0.426,23.19,110.3357,25.76,26.66,30.75,0,111.3,13.08,26.60,117.1
"2010-07-26 00:10:30",14722,4.419,143.3,3.962,0.276,23.17,110.3388,25.77,26.65,31.27,0,111.3,13.08,26.61,105.3
"2010-07-26 00:11:00",14723,4.971,143.6,4.177,0.226,23.25,110.3447,25.78,26.67,31.53,0,111.3,13.08,26.62,105.6
"2010-07-26 00:11:30",14724,5.972,145.9,2.436,0.345,23.14,110.3502,25.79,26.66,31.25,0,111.3,13.08,26.64,107.9
"2010-07-26 00:12:00",14725,6.307,143.1,2.609,0.462,23.26,110.3521,25.8,26.65,31.3,0,111.3,13.08,26.64,105.1
"2010-07-26 00:12:30",14726,6.252,141.7,3.61,0.494,23.25,110.3533,25.8,26.68,31.26,0,111.3,13.08,26.64,103.7
"2010-07-26 00:13:00",14727,5.453,154.7,5.303,0.298,23.23,110.3558,25.81,26.66,30.66,0,111.3,13.08,26.65,116.7
"2010-07-26 00:13:30",14728,5.688,162,3.823,0.184,23.28,110.3589,25.82,26.66,30.55,0,111.3,13.09,26.66,124.0
"2010-07-26 00:14:00",14729,5.685,157.2,3.265,0.425,23.29,110.3605,25.82,26.66,29.92,0,111.3,13.09,26.66,119.2
"2010-07-26 00:14:30",14730,6.409,155,2.304,0.307,23.32,110.3608,25.82,26.66,30.17,0,111.3,13.09,26.66,117.0
"2010-07-26 00:15:00",14731,6.288,151,5.497,0.419,23.29,110.3611,25.82,26.68,30.45,0,111.3,13.09,26.66,113.0
"2010-07-26 00:15:30",14732,6.898,146.6,3.739,0.343,23.3,110.3611,25.82,26.68,31.07,0,111.3,13.09,26.66,108.6
"2010-07-26 00:16:00",14733,6.363,150.6,4.42,0.713,23.26,110.3614,25.82,26.68,30.88,0,111.3,13.09,26.67,112.6
"2010-07-26 00:16:30",14734,6.559,146.9,7.593,0.541,23.17,110.3608,25.82,26.68,30.8,0,111.3,13.09,26.66,108.9
"2010-07-26 00:17:00",14735,5.805,147.6,5.087,0.375,23.18,110.3558,25.81,26.67,30.87,0,111.3,13.09,26.65,109.6
"2010-07-26 00:17:30",14736,6.84,161.7,3.427,0.442,23.38,110.3401,25.77,26.67,30.63,0,111.3,13.1,26.61,123.7
"2010-07-26 00:18:00",14737,7.606,157.2,3.776,0.376,23.35,110.3403,25.77,26.66,30.91,0,111.3,13.1,26.61,119.2
"2010-07-26 00:18:30",14738,7.086,155,2.567,0.186,23.36,110.3376,25.76,26.66,31.08,0,111.3,13.1,26.60,117.0
"2010-07-26 00:19:00",14739,7.097,148.3,5.117,0.377,23.18,110.3367,25.76,26.64,30.87,0,111.3,13.1,26.60,110.3
"2010-07-26 00:19:30",14740,6.469,163.4,5.279,0.457,23.31,110.3364,25.76,26.64,30.69,0,111.3,13.1,26.60,125.4
"2010-07-26 00:20:00",14741,5.98,160.4,1.918,0.332,23.36,110.335,25.76,26.63,30.25,0,111.3,13.1,26.60,122.4
"2010-07-26 00:20:30",14742,6.194,158.1,2.359,0.277,23.32,110.3356,25.76,26.62,30.07,0,111.3,13.1,26.60,120.1
"2010-07-26 00:21:00",14743,5.969,158.2,3.59,0.185,23.35,110.3359,25.76,26.62,30.13,0,111.3,13.1,26.60,120.2
"2010-07-26 00:21:30",14744,5.962,156.6,3.827,0.352,23.22,110.335,25.76,26.62,30.65,0,111.2,13.1,26.60,118.6
"2010-07-26 00:22:00",14745,6.878,149.4,5.491,0.686,23.22,110.3196,25.72,26.63,30.44,0,111.2,13.1,26.56,111.4
"2010-07-26 00:22:30",14746,6.546,145.6,2.82,0.415,23.25,110.312,25.7,26.61,30.29,0,111.2,13.1,26.54,107.6
"2010-07-26 00:23:00",14747,7.318,141.2,3.182,0.193,23.26,110.3112,25.69,26.6,31.02,0,111.3,13.1,26.54,103.2
"2010-07-26 00:23:30",14748,7.907,152.2,2.555,0.587,23.34,110.3103,25.69,26.62,30.67,0,111.3,13.1,26.53,114.2
"2010-07-26 00:24:00",14749,6.189,153.8,2.84,0.98,23.29,110.3055,25.68,26.6,30.83,0,111.3,13.1,26.52,115.8
"2010-07-26 00:24:30",14750,7.331,149.8,3.508,0.389,23.3,110.303,25.67,26.59,30.4,0,111.2,13.1,26.51,111.8
"2010-07-26 00:25:00",14751,8.45,148.4,3.443,0.504,23.31,110.303,25.67,26.59,30.47,0,111.2,13.1,26.51,110.4
"2010-07-26 00:25:30",14752,7.733,149.4,2.705,0.525,23.31,110.3046,25.68,26.59,30.52,0,111.2,13.1,26.52,111.4
"2010-07-26 00:26:00",14753,7.308,147.4,2.05,0.288,23.26,110.3058,25.68,26.6,30.68,0,111.2,13.1,26.52,109.4
"2010-07-26 00:26:30",14754,7.754,150.4,2.126,0.254,23.32,110.3105,25.69,26.58,30.65,0,111.2,13.1,26.53,112.4
"2010-07-26 00:27:00",14755,7.438,149,2.203,0.197,23.27,110.3138,25.7,26.59,30.51,0,111.2,13.1,26.54,111.0
"2010-07-26 00:27:30",14756,6.876,154,2.782,0.498,23.32,110.3167,25.71,26.58,30.49,0,111.2,13.09,26.55,116.0
"2010-07-26 00:28:00",14757,6.529,155.5,1.596,0.261,23.29,110.3098,25.69,26.56,30.5,0,111.2,13.1,26.53,117.5
"2010-07-26 00:28:30",14758,7.187,153.8,2.28,0.259,23.3,110.3023,25.67,26.57,30.48,0,111.2,13.1,26.51,115.8
"2010-07-26 00:29:00",14759,6.873,151.5,2.23,0.334,23.27,110.301,25.67,26.58,30.68,0,111.2,13.1,26.51,113.5
"2010-07-26 00:29:30",14760,7.133,152.4,2.651,0.131,23.28,110.3004,25.67,26.56,30.77,0,111.2,13.09,26.51,114.4
"2010-07-26 00:30:00",14761,6.842,155.1,2.142,0.133,23.32,110.3013,25.67,26.55,30.56,0,111.2,13.1,26.51,117.1
"2010-07-26 00:30:30",14762,6.86,154.4,2.391,0.283,23.35,110.3016,25.67,26.54,30.81,0,111.2,13.1,26.51,116.4
"2010-07-26 00:31:00",14763,7.073,157.2,2.058,0.406,23.34,110.3025,25.67,26.55,30.56,0,111.2,13.1,26.51,119.2
"2010-07-26 00:31:30",14764,7.179,153.3,2.615,0.356,23.26,110.3034,25.67,26.55,30.34,0,111.2,13.1,26.52,115.3
"2010-07-26 00:32:00",14765,7.227,148.4,1.432,0.277,23.28,110.2999,25.67,26.56,30.22,0,111.2,13.1,26.51,110.4
"2010-07-26 00:32:30",14766,7.147,148.6,1.667,0.444,23.3,110.299,25.66,26.55,30.06,0,111.2,13.1,26.50,110.6
"2010-07-26 00:33:00",14767,8.46,148.4,0.97,0.489,23.25,110.3006,25.67,26.55,30.13,0,111.2,13.1,26.51,110.4
"2010-07-26 00:33:30",14768,8.15,149.2,2.193,0.304,23.31,110.3034,25.67,26.54,30.02,0,111.2,13.1,26.52,111.2
"2010-07-26 00:34:00",14769,8.02,150.4,1.202,0.198,23.29,110.3052,25.68,26.57,29.96,0,111.2,13.11,26.52,112.4
"2010-07-26 00:34:30",14770,7.847,149.1,1.564,0.169,23.24,110.3059,25.68,26.56,30,0,111.2,13.1,26.52,111.1
"2010-07-26 00:35:00",14771,7.862,144.8,1.566,0.232,23.19,110.3062,25.68,26.55,30.04,0,111.2,13.11,26.52,106.8
"2010-07-26 00:35:30",14772,7.896,147.1,2.021,0.224,23.21,110.3065,25.68,26.55,30.02,0,111.2,13.11,26.52,109.1
"2010-07-26 00:36:00",14773,7.525,145.8,1.846,0.241,23.2,110.3065,25.68,26.55,30.01,0,111.2,13.11,26.52,107.8
"2010-07-26 00:36:30",14774,8.34,149.4,1.525,0.185,23.2,110.3062,25.68,26.54,30.02,0,111.2,13.11,26.52,111.4
"2010-07-26 00:37:00",14775,8.15,148.8,1.395,0.303,23.16,110.2989,25.66,26.54,30.03,0,111.2,13.11,26.50,110.8
"2010-07-26 00:37:30",14776,8.67,147.7,2.225,0.266,23.14,110.2897,25.64,26.53,30.19,0,111.2,13.11,26.48,109.7
"2010-07-26 00:38:00",14777,8.47,147.2,1.499,0.164,23.14,110.2824,25.62,26.54,30.43,0,111.2,13.11,26.46,109.2
"2010-07-26 00:38:30",14778,8.21,142.1,2.426,0.39,23.09,110.2812,25.62,26.54,30.26,0,111.2,13.11,26.46,104.1
"2010-07-26 00:39:00",14779,7.927,138.6,1.035,0.389,22.94,110.2812,25.62,26.52,30.06,0,111.2,13.11,26.46,100.6
"2010-07-26 00:39:30",14780,7.052,137.8,1.385,0.433,22.84,110.2815,25.62,26.54,30.04,0,111.2,13.11,26.46,99.8
"2010-07-26 00:40:00",14781,7.321,141.7,2.992,0.54,22.88,110.2824,25.62,26.54,30.21,0,111.2,13.11,26.46,103.7
"2010-07-26 00:40:30",14782,7.548,141.9,3.356,0.571,22.94,110.2826,25.62,26.53,30.86,0,111.2,13.11,26.46,103.9
"2010-07-26 00:41:00",14783,8.15,140.4,2.715,0.194,23.01,110.2821,25.62,26.54,30.9,0,111.2,13.11,26.46,102.4
"2010-07-26 00:41:30",14784,6.954,141.8,1.558,0.299,23.02,110.2819,25.62,26.54,30.91,0,111.2,13.11,26.46,103.8
"2010-07-26 00:42:00",14785,6.602,143,2.475,0.287,23.06,110.2822,25.62,26.53,30.94,0,111.2,13.11,26.46,105.0
"2010-07-26 00:42:30",14786,6.488,150,3.992,0.3,23.1,110.2822,25.62,26.53,30.83,0,111.2,13.11,26.46,112.0
"2010-07-26 00:43:00",14787,7.14,156,1.4,0.237,23.01,110.2757,25.6,26.54,32.69,0,111.2,13.11,26.44,118.0
"2010-07-26 00:43:30",14788,7.38,153.7,2.061,0.216,23.03,110.2753,25.6,26.54,32.99,0,111.2,13.11,26.44,115.7
"2010-07-26 00:44:00",14789,7.389,153.2,0.927,0.147,23.03,110.2605,25.56,26.51,32.5,0,111.2,13.11,26.41,115.2
"2010-07-26 00:44:30",14790,7.556,152.1,1.147,0.406,22.98,110.2487,25.53,26.48,32.67,0,111.2,13.11,26.37,114.1
"2010-07-26 00:45:00",14791,7.121,150.8,2.355,0.324,22.85,110.2416,25.52,26.48,32.18,0,111.2,13.11,26.36,112.8
"2010-07-26 00:45:30",14792,7.782,155.9,1.356,0.217,22.71,110.2425,25.52,26.47,33.73,0,111.2,13.11,26.36,117.9
"2010-07-26 00:46:00",14793,7.939,157,1.279,0.222,22.64,110.245,25.52,26.48,34.28,0,111.2,13.11,26.37,119.0
"2010-07-26 00:46:30",14794,7.775,155.8,1.012,0.279,22.6,110.2438,25.52,26.45,34.13,0,111.2,13.11,26.36,117.8
"2010-07-26 00:47:00",14795,7.589,155,1.917,0.136,22.52,110.2422,25.52,26.45,34.25,0,111.2,13.11,26.36,117.0
"2010-07-26 00:47:30",14796,7.401,158.4,1.694,0.261,22.56,110.2341,25.5,26.42,34.33,0,111.2,13.11,26.34,120.4
"2010-07-26 00:48:00",14797,7.336,158.8,1.314,0.16,22.54,110.231,25.49,26.42,34.12,0,111.2,13.11,26.33,120.8
"2010-07-26 00:48:30",14798,7.903,158.1,1.051,0.161,22.46,110.2278,25.48,26.42,34.2,0,111.2,13.11,26.32,120.1
"2010-07-26 00:49:00",14799,7.973,157.5,1.45,0.301,22.48,110.2234,25.47,26.41,34.12,0,111.2,13.11,26.31,119.5
"2010-07-26 00:49:30",14800,8.23,157.3,1.937,0.162,22.53,110.22,25.46,26.4,34.06,0,111.2,13.11,26.30,119.3
"2010-07-26 00:50:00",14801,7.99,155.7,1.718,0.215,22.49,110.2204,25.46,26.39,34.23,0,111.2,13.11,26.30,117.7
"2010-07-26 00:50:30",14802,8.37,155.8,2.005,0.309,22.45,110.2164,25.45,26.4,34.29,0,111.2,13.11,26.29,117.8
"2010-07-26 00:51:00",14803,7.962,155.3,0.875,0.213,22.5,110.215,25.45,26.39,34.39,0,111.2,13.11,26.29,117.3
"2010-07-26 00:51:30",14804,8.13,155.9,2.205,0.383,22.55,110.2113,25.44,26.38,34.41,0,111.2,13.11,26.28,117.9
"2010-07-26 00:52:00",14805,7.472,157.7,1.137,0.13,22.53,110.2088,25.43,26.37,34.06,0,111.2,13.11,26.27,119.7
"2010-07-26 00:52:30",14806,7.743,158.9,1.942,0.203,22.53,110.2095,25.43,26.38,34,0,111.2,13.11,26.27,120.9
"2010-07-26 00:53:00",14807,8.4,158,1.167,0.214,22.52,110.2092,25.43,26.36,33.92,0,111.2,13.11,26.27,120.0
"2010-07-26 00:53:30",14808,8.43,157,1.695,0.26,22.53,110.2079,25.43,26.38,33.87,0,111.2,13.11,26.27,119.0
"2010-07-26 00:54:00",14809,8.41,161.6,2.251,0.214,22.56,110.2092,25.43,26.37,33.91,0,111.2,13.11,26.27,123.6
"2010-07-26 00:54:30",14810,8.24,161.2,1.947,0.361,22.6,110.2104,25.44,26.35,33.86,0,111.2,13.11,26.28,123.2
"2010-07-26 00:55:00",14811,7.442,163.6,1.221,0.218,22.58,110.2085,25.43,26.36,33.77,0,111.2,13.11,26.27,125.6
"2010-07-26 00:55:30",14812,8.27,164.7,1.165,0.235,22.67,110.2076,25.43,26.36,33.77,0,111.2,13.11,26.27,126.7
"2010-07-26 00:56:00",14813,8.24,161.9,2.112,0.151,22.61,110.2095,25.43,26.35,33.97,0,111.2,13.11,26.27,123.9
"2010-07-26 00:56:30",14814,8.55,160.3,3.08,0.234,22.62,110.2076,25.43,26.36,33.98,0,111.2,13.11,26.27,122.3
"2010-07-26 00:57:00",14815,8.51,160.2,1.476,0.297,22.6,110.2076,25.43,26.34,34.04,0,111.2,13.11,26.27,122.2
"2010-07-26 00:57:30",14816,8.3,163.2,1.986,0.203,22.67,110.2079,25.43,26.34,33.88,0,111.2,13.11,26.27,125.2
"2010-07-26 00:58:00",14817,8.48,162.4,1.901,0.333,22.63,110.2064,25.42,26.34,33.95,0,111.2,13.11,26.27,124.4
"2010-07-26 00:58:30",14818,8.43,162.8,1.863,0.352,22.64,110.207,25.43,26.32,33.99,0,111.2,13.11,26.27,124.8
"2010-07-26 00:59:00",14819,8.3,166.1,1.602,0.165,22.82,110.2048,25.42,26.34,33.91,0,111.2,13.11,26.26,128.1
"2010-07-26 00:59:30",14820,7.995,165.3,0.899,0.168,22.86,110.1872,25.38,26.32,33.69,0,111.2,13.11,26.22,127.3
"2010-07-26 01:00:00",14821,7.385,162,2.31,0.284,23.02,110.1795,25.36,26.3,34.04,0,111.2,13.11,26.20,124.0
"2010-07-26 01:00:30",14822,7.362,167.6,2.305,0.329,23.12,110.1745,25.34,26.3,34.2,0,111.2,13.11,26.18,129.6
"2010-07-26 01:01:00",14823,6.575,167.3,5.346,0.286,23.12,110.1733,25.34,26.28,34.31,0,111.2,13.11,26.18,129.3
"2010-07-26 01:01:30",14824,6.493,158.4,2.174,0.379,23.16,110.1746,25.34,26.26,34.48,0,111.2,13.11,26.18,120.4
"2010-07-26 01:02:00",14825,6.167,160.9,2.5,0.279,23.26,110.1704,25.33,26.26,34.69,0,111.2,13.11,26.17,122.9
"2010-07-26 01:02:30",14826,6.574,167.9,2.907,0.489,23.34,110.1743,25.34,26.24,34.95,0,111.2,13.11,26.18,129.9
"2010-07-26 01:03:00",14827,6.768,166.5,2.778,0.329,23.26,110.1764,25.35,26.24,34.51,0,111.2,13.11,26.19,128.5
"2010-07-26 01:03:30",14828,6.946,166.7,1.921,0.317,23.22,110.1688,25.33,26.23,33.74,0,111.2,13.11,26.17,128.7
"2010-07-26 01:04:00",14829,7.374,166.5,1.439,0.257,23.26,110.1577,25.3,26.22,33.63,0,111.2,13.11,26.14,128.5
"2010-07-26 01:04:30",14830,7.086,166.6,2.226,0.221,23.23,110.1519,25.28,26.21,33.77,0,111.2,13.11,26.12,128.6
"2010-07-26 01:05:00",14831,6.675,168.2,2.125,0.236,23.25,110.1563,25.3,26.2,33.63,0,111.2,13.11,26.14,130.2
"2010-07-26 01:05:30",14832,5.955,161.7,2.023,0.331,23.18,110.1536,25.29,26.19,34.52,0,111.2,13.11,26.13,123.7
"2010-07-26 01:06:00",14833,5.95,155.9,2.015,0.211,23.23,110.1446,25.27,26.17,34.77,0,111.2,13.12,26.11,117.9
"2010-07-26 01:06:30",14834,5.528,157.7,2.602,0.362,23.21,110.1394,25.25,26.17,34.77,0,111.2,13.12,26.09,119.7
"2010-07-26 01:07:00",14835,6.229,161,4.105,0.415,23.26,110.1366,25.25,26.16,34.44,0,111.2,13.12,26.09,123.0
"2010-07-26 01:07:30",14836,6.222,166.2,1.768,0.314,23.28,110.1372,25.25,26.14,33.83,0,111.2,13.12,26.09,128.2
"2010-07-26 01:08:00",14837,5.968,164.5,6.882,0.552,23.29,110.1364,25.24,26.14,34.01,0,111.2,13.12,26.09,126.5
"2010-07-26 01:08:30",14838,5.968,166.1,4.908,0.324,23.29,110.1378,25.25,26.15,34.05,0,111.2,13.12,26.09,128.1
"2010-07-26 01:09:00",14839,6.475,166.1,2.497,0.211,23.33,110.1406,25.26,26.13,33.61,0,111.2,13.12,26.10,128.1
"2010-07-26 01:09:30",14840,6.302,167.4,1.527,0.19,23.33,110.1406,25.26,26.14,33.44,0,111.2,13.12,26.10,129.4
"2010-07-26 01:10:00",14841,5.724,161.4,3.646,0.274,23.24,110.1412,25.26,26.15,34.04,0,111.2,13.12,26.10,123.4
"2010-07-26 01:10:30",14842,5.987,167.1,3.062,0.216,23.31,110.1415,25.26,26.15,33.48,0,111.2,13.12,26.10,129.1
"2010-07-26 01:11:00",14843,6.31,168.8,1.069,0.155,23.4,110.1438,25.26,26.14,33.29,0,111.2,13.12,26.10,130.8
"2010-07-26 01:11:30",14844,6.013,169,0.672,0.109,23.33,110.149,25.28,26.16,33.27,0,111.2,13.12,26.12,131.0
"2010-07-26 01:12:00",14845,6.688,169.2,2.461,0.217,23.31,110.1543,25.29,26.14,33.24,0,111.2,13.12,26.13,131.2
"2010-07-26 01:12:30",14846,6.676,165.1,1.371,0.254,23.33,110.1568,25.3,26.16,33.21,0,111.2,13.12,26.14,127.1
"2010-07-26 01:13:00",14847,6.379,163.8,2.936,0.275,23.3,110.1542,25.29,26.15,33.24,0,111.1,13.12,26.13,125.8
"2010-07-26 01:13:30",14848,6.475,162.6,2.925,0.368,23.27,110.1539,25.29,26.17,33.25,0,111.1,13.12,26.13,124.6
"2010-07-26 01:14:00",14849,6.379,161.9,2.087,0.239,23.27,110.1513,25.28,26.16,33.18,0,111.1,13.12,26.12,123.9
"2010-07-26 01:14:30",14850,6.777,164.9,2.17,0.159,23.31,110.1505,25.28,26.15,33.27,0,111.1,13.12,26.12,126.9
"2010-07-26 01:15:00",14851,6.353,165.3,2.005,0.114,23.35,110.1499,25.28,26.16,33.41,0,111.1,13.12,26.12,127.3
"2010-07-26 01:15:30",14852,6.187,167.9,1.946,0.14,23.37,110.1508,25.28,26.15,33.43,0,111.1,13.12,26.12,129.9
"2010-07-26 01:16:00",14853,6.034,164.7,1.394,0.177,23.33,110.1502,25.28,26.16,33.39,0,111.1,13.12,26.12,126.7
"2010-07-26 01:16:30",14854,6.278,160.1,1.635,0.244,23.29,110.1502,25.28,26.16,33.3,0,111.1,13.12,26.12,122.1
"2010-07-26 01:17:00",14855,6.428,160.5,1.023,0.269,23.27,110.1502,25.28,26.17,33.27,0,111.1,13.12,26.12,122.5
"2010-07-26 01:17:30",14856,6.563,159.7,0.944,0.096,23.22,110.1494,25.28,26.16,33.5,0,111.1,13.12,26.12,121.7
"2010-07-26 01:18:00",14857,6.664,158.8,1.331,0.119,23.24,110.1446,25.27,26.16,34.04,0,111.1,13.12,26.11,120.8
"2010-07-26 01:18:30",14858,6.805,159.2,1.898,0.179,23.28,110.1415,25.26,26.16,33.97,0,111.1,13.12,26.10,121.2
"2010-07-26 01:19:00",14859,6.503,157.4,1.328,0.075,23.24,110.1415,25.26,26.15,34.25,0,111.1,13.12,26.10,119.4
"2010-07-26 01:19:30",14860,6.554,158.1,1.811,0.128,23.28,110.1415,25.26,26.14,34.26,0,111.1,13.11,26.10,120.1
"2010-07-26 01:20:00",14861,6.497,156.6,1.218,0.142,23.26,110.1412,25.26,26.16,34.36,0,111.1,13.12,26.10,118.6
"2010-07-26 01:20:30",14862,6.763,155.8,2.78,0.129,23.26,110.1328,25.24,26.15,34.89,0,111.1,13.12,26.08,117.8
"2010-07-26 01:21:00",14863,6.248,151.7,1.915,0.247,23.21,110.1179,25.2,26.13,34.99,0,111.1,13.12,26.04,113.7
"2010-07-26 01:21:30",14864,6.415,159.3,2.219,0.258,23.26,110.1148,25.19,26.12,34.62,0,111.1,13.12,26.03,121.3
"2010-07-26 01:22:00",14865,6.245,157.2,0.889,0.171,23.24,110.1098,25.18,26.12,34.73,0,111.1,13.12,26.02,119.2
"2010-07-26 01:22:30",14866,5.993,159.9,1.696,0.283,23.28,110.1078,25.17,26.13,34.72,0,111.1,13.12,26.01,121.9
"2010-07-26 01:23:00",14867,6.553,160.7,1.964,0.12,23.26,110.1081,25.17,26.13,34.64,0,111.1,13.12,26.01,122.7
"2010-07-26 01:23:30",14868,6.245,160.3,1.595,0.139,23.19,110.1081,25.17,26.11,34.63,0,111.1,13.12,26.01,122.3
"2010-07-26 01:24:00",14869,6.077,158.8,1.086,0.15,23.21,110.11,25.18,26.11,34.64,0,111.1,13.12,26.02,120.8
"2010-07-26 01:24:30",14870,5.857,159.9,1.439,0.115,23.22,110.1084,25.17,26.1,34.56,0,111.1,13.12,26.01,121.9
"2010-07-26 01:25:00",14871,6.507,157.3,1.165,0.3,23.21,110.1115,25.18,26.09,34.68,0,111.1,13.13,26.02,119.3
"2010-07-26 01:25:30",14872,6.922,156.6,2.499,0.208,23.16,110.1159,25.19,26.08,34.83,0,111.1,13.13,26.03,118.6
"2010-07-26 01:26:00",14873,6.858,165.2,2.606,0.329,23.23,110.1215,25.21,26.08,34.72,0,111.1,13.13,26.05,127.2
"2010-07-26 01:26:30",14874,6.875,164.2,2.483,0.229,23.15,110.1239,25.21,26.08,34.76,0,111.1,13.13,26.05,126.2
"2010-07-26 01:27:00",14875,6.029,163.9,1.998,0.183,23.15,110.1282,25.22,26.07,34.78,0,111.1,13.13,26.06,125.9
"2010-07-26 01:27:30",14876,6.529,163.5,2.92,0.336,23.12,110.1295,25.23,26.1,34.7,0,111.1,13.13,26.07,125.5
"2010-07-26 01:28:00",14877,6.815,167.8,1.254,0.099,23.13,110.1304,25.23,26.09,34.53,0,111.1,13.13,26.07,129.8
"2010-07-26 01:28:30",14878,6.443,165.3,2.046,0.226,23.07,110.1316,25.23,26.09,34.68,0,111.1,13.13,26.07,127.3
"2010-07-26 01:29:00",14879,6.078,168.1,2.367,0.114,23.1,110.13,25.23,26.08,34.87,0,111.1,13.13,26.07,130.1
"2010-07-26 01:29:30",14880,6.257,166.5,0.922,0.113,23.2,110.1317,25.23,26.07,35,0,111.1,13.13,26.07,128.5
"2010-07-26 01:30:00",14881,6.651,169,1.626,0.169,23.23,110.1248,25.22,26.07,35.11,0,111.1,13.13,26.06,131.0
"2010-07-26 01:30:30",14882,6.848,169.7,0.797,0.134,23.25,110.1125,25.18,26.06,35.07,0,111.1,13.13,26.02,131.7
"2010-07-26 01:31:00",14883,6.437,169.3,1.196,0.173,23.25,110.1092,25.18,26.06,35.2,0,111.1,13.13,26.01,131.3
"2010-07-26 01:31:30",14884,6.381,166.7,1.263,0.21,23.21,110.1019,25.16,26.05,35.37,0,111.1,13.13,26.00,128.7
"2010-07-26 01:32:00",14885,6.373,163.4,2.66,0.185,23.13,110.1019,25.16,26.04,35.54,0,111.1,13.13,26.00,125.4
"2010-07-26 01:32:30",14886,6.384,164.3,2.562,0.106,23.12,110.1022,25.16,26.04,35.59,0,111.1,13.13,26.00,126.3
"2010-07-26 01:33:00",14887,6.181,162.2,1.81,0.125,23.06,110.0887,25.12,26,35.74,0,111.1,13.13,25.96,124.2
"2010-07-26 01:33:30",14888,6.186,163.4,1.429,0.079,23.1,110.0731,25.08,26.01,35.8,0,111.1,13.13,25.92,125.4
"2010-07-26 01:34:00",14889,6.19,164.5,1.498,0.163,23.14,110.0698,25.07,26,35.63,0,111.1,13.13,25.91,126.5
"2010-07-26 01:34:30",14890,6.344,163.6,2.401,0.123,23.16,110.0716,25.08,25.98,35.53,0,111.1,13.13,25.92,125.6
"2010-07-26 01:35:00",14891,6.092,164.2,2.31,0.192,23.13,110.0732,25.08,25.98,35.67,0,111.1,13.13,25.92,126.2
"2010-07-26 01:35:30",14892,5.701,166.3,1.817,0.14,23.15,110.076,25.09,25.97,35.66,0,111.1,13.13,25.93,128.3
"2010-07-26 01:36:00",14893,6.031,162.6,1.53,0.162,23.05,110.0754,25.09,25.97,35.85,0,111.1,13.13,25.93,124.6
"2010-07-26 01:36:30",14894,5.766,161.8,1.941,0.275,22.99,110.072,25.08,25.95,36.04,0,111.1,13.13,25.92,123.8
"2010-07-26 01:37:00",14895,6.209,164.1,2.183,0.13,23.04,110.0648,25.06,25.95,35.94,0,111.1,13.13,25.90,126.1
"2010-07-26 01:37:30",14896,6.34,166.4,2.524,0.189,23.09,110.0554,25.04,25.94,36.02,0,111.1,13.13,25.88,128.4
"2010-07-26 01:38:00",14897,6.876,166.2,1.732,0.441,23.13,110.0465,25.01,25.93,36.22,0,111.1,13.13,25.85,128.2
"2010-07-26 01:38:30",14898,7.038,168.3,1.098,0.107,23.17,110.0435,25.01,25.91,36.39,0,111.1,13.13,25.85,130.3
"2010-07-26 01:39:00",14899,7.06,170.4,1.222,0.223,23.15,110.0435,25.01,25.9,36.81,0,111.1,13.13,25.85,132.4
"2010-07-26 01:39:30",14900,6.864,171.8,1.449,0.223,23.11,110.0438,25.01,25.9,37.02,0,111.1,13.13,25.85,133.8
"2010-07-26 01:40:00",14901,6.431,170.9,1.38,0.163,23.11,110.0278,24.97,25.86,37.26,0,111.1,13.13,25.80,132.9
"2010-07-26 01:40:30",14902,6.492,170.9,1.364,0.223,23.11,110.0152,24.93,25.85,37.42,0,111.1,13.13,25.77,132.9
"2010-07-26 01:41:00",14903,6.477,169.3,1.279,0.186,23.11,110.0101,24.92,25.83,37.38,0,111.1,13.14,25.76,131.3
"2010-07-26 01:41:30",14904,6.83,169.3,0.661,0.156,23.14,110.0101,24.92,25.81,37.74,0,111.1,13.14,25.76,131.3
"2010-07-26 01:42:00",14905,6.973,168.4,0.748,0.155,23.15,110.0056,24.91,25.79,37.95,0,111.1,13.14,25.75,130.4
"2010-07-26 01:42:30",14906,7.077,167.4,0.653,0.089,23.15,109.9882,24.86,25.77,38.11,0,111.1,13.14,25.70,129.4
"2010-07-26 01:43:00",14907,7.09,169.9,1.596,0.138,23.11,109.9798,24.84,25.76,38.45,0,111.1,13.14,25.68,131.9
"2010-07-26 01:43:30",14908,7.11,170.1,1.49,0.159,23.11,109.9764,24.83,25.76,38.61,0,111.1,13.14,25.67,132.1
"2010-07-26 01:44:00",14909,7.378,168.8,0.807,0.212,23.15,109.9761,24.83,25.74,38.91,0,111.1,13.14,25.67,130.8
"2010-07-26 01:44:30",14910,7.678,168.9,0.685,0.088,23.03,109.9562,24.78,25.72,39.36,0,111.1,13.14,25.62,130.9
"2010-07-26 01:45:00",14911,7.754,171.5,1.351,0.174,23.07,109.9441,24.75,25.69,39.67,0,111.1,13.14,25.59,133.5
"2010-07-26 01:45:30",14912,7.495,170.1,0.562,0.096,23.13,109.9421,24.75,25.67,39.7,0,111.1,13.14,25.58,132.1
"2010-07-26 01:46:00",14913,7.354,170.8,1.035,0.07,23.13,109.9284,24.71,25.64,39.71,0,111.1,13.14,25.55,132.8
"2010-07-26 01:46:30",14914,7.325,171.2,0.792,0.103,23.07,109.9163,24.68,25.62,39.92,0,111.1,13.14,25.52,133.2
"2010-07-26 01:47:00",14915,7.132,170.4,0.814,0.098,23.06,109.9093,24.66,25.61,39.92,0,111.1,13.14,25.50,132.4
"2010-07-26 01:47:30",14916,7.193,170.1,0.564,0.126,23.08,109.909,24.66,25.6,39.83,0,111.1,13.14,25.50,132.1
"2010-07-26 01:48:00",14917,7.252,169.8,0.412,0.11,23.13,109.909,24.66,25.57,39.78,0,111.1,13.14,25.50,131.8
"2010-07-26 01:48:30",14918,7.269,168.6,0.633,0.054,23.12,109.9048,24.65,25.57,39.82,0,111.1,13.14,25.49,130.6